| time (UTC) | temp F | wind direction | speed MPH | gust MPH | rain 1hr in | rain 24hr in | rain mn in | humidity % | barometer mb |
| 20260831030002 | 56 | 231 | 0.0 | 0.0 | 0.00 | 0.05 | 0.01 | 97 | 1001.9 |
| 20260831024502 | 56 | 231 | 0.0 | 0.0 | 0.00 | 0.10 | 0.01 | 97 | 1001.7 |
| 20260831023101 | 55 | 231 | 0.0 | 0.0 | 0.00 | 0.10 | 0.01 | 97 | 1001.7 |
| 20260831021559 | 56 | 231 | 0.0 | 0.0 | 0.00 | 0.10 | 0.01 | 96 | 1001.8 |
| 20260831020059 | 56 | 231 | 0.0 | 0.0 | 0.01 | 0.10 | 0.01 | 97 | 1001.7 |
| 20260831014559 | 56 | 231 | 0.0 | 0.0 | 0.01 | 0.10 | 0.01 | 97 | 1001.7 |
| 20260831013058 | 55 | 231 | 0.0 | 0.0 | 0.01 | 0.10 | 0.01 | 96 | 1001.7 |
| 20260831011557 | 55 | 231 | 0.0 | 0.0 | 0.01 | 0.10 | 0.01 | 97 | 1001.7 |
| 20260831010057 | 55 | 231 | 0.0 | 0.0 | 0.00 | 0.09 | 0.00 | 96 | 1001.8 |
| 20260831004556 | 55 | 231 | 0.0 | 0.0 | 0.00 | 0.09 | 0.00 | 96 | 1001.9 |
| 20260831003101 | 55 | 231 | 0.0 | 0.0 | 0.00 | 0.09 | 0.00 | 96 | 1001.8 |
| 20260831001557 | 55 | 231 | 0.0 | 0.0 | 0.00 | 0.09 | 0.00 | 96 | 1001.8 |
| 20260831000052 | 55 | 229 | 0.0 | 0.0 | 0.00 | 0.09 | 0.00 | 95 | 1001.8 |
| 20260830234601 | 56 | 227 | 0.0 | 0.0 | 0.00 | 0.11 | 0.00 | 96 | 1001.7 |
| 20260830233051 | 56 | 226 | 0.0 | 0.0 | 0.00 | 0.11 | 0.00 | 96 | 1001.8 |
| 20260830231551 | 55 | 226 | 0.0 | 0.0 | 0.00 | 0.11 | 0.00 | 96 | 1001.6 |
| 20260830230049 | 55 | 226 | 0.0 | 0.0 | 0.00 | 0.11 | 0.00 | 95 | 1001.7 |
| 20260830224550 | 56 | 223 | 0.0 | 0.0 | 0.00 | 0.11 | 0.00 | 95 | 1001.6 |
| 20260830223048 | 56 | 223 | 0.0 | 0.0 | 0.00 | 0.11 | 0.00 | 95 | 1001.7 |
| 20260830221543 | 57 | 223 | 0.0 | 0.0 | 0.00 | 0.11 | 0.00 | 95 | 1001.7 |
| 20260830220041 | 57 | 223 | 0.0 | 0.0 | 0.00 | 0.11 | 0.00 | 94 | 1001.6 |
| 20260830214552 | 58 | 220 | 0.0 | 0.0 | 0.00 | 0.11 | 0.11 | 95 | 1001.5 |
| 20260830213038 | 58 | 220 | 0.0 | 0.0 | 0.00 | 0.11 | 0.11 | 94 | 1001.5 |
| 20260830211535 | 60 | 214 | 0.0 | 0.0 | 0.00 | 0.11 | 0.11 | 95 | 1001.5 |
| 20260830210036 | 60 | 210 | 0.0 | 0.0 | 0.00 | 0.11 | 0.11 | 94 | 1001.3 |
| 20260830204533 | 60 | 210 | 0.0 | 0.0 | 0.00 | 0.11 | 0.11 | 94 | 1001.3 |
| 20260830203046 | 61 | 210 | 0.0 | 0.0 | 0.00 | 0.11 | 0.11 | 94 | 1001.4 |
| 20260830201532 | 61 | 210 | 0.0 | 0.0 | 0.00 | 0.11 | 0.11 | 93 | 1001.3 |
| 20260830200032 | 62 | 210 | 0.0 | 0.0 | 0.00 | 0.11 | 0.11 | 93 | 1001.2 |
| 20260830194531 | 63 | 210 | 0.0 | 0.0 | 0.00 | 0.11 | 0.11 | 92 | 1001.3 |
| 20260830193030 | 63 | 210 | 0.0 | 0.0 | 0.00 | 0.11 | 0.11 | 92 | 1001.2 |
| 20260830191528 | 63 | 210 | 0.0 | 0.0 | 0.00 | 0.11 | 0.11 | 92 | 1001.2 |
| 20260830190030 | 64 | 210 | 0.0 | 0.0 | 0.00 | 0.11 | 0.11 | 91 | 1001.3 |
| 20260830184532 | 64 | 210 | 0.0 | 0.0 | 0.00 | 0.11 | 0.11 | 91 | 1001.2 |
| 20260830183026 | 64 | 210 | 0.0 | 0.0 | 0.00 | 0.11 | 0.11 | 91 | 1000.9 |
| 20260830181524 | 64 | 210 | 0.0 | 0.0 | 0.00 | 0.11 | 0.11 | 91 | 1000.9 |
| 20260830180023 | 64 | 210 | 0.0 | 0.0 | 0.00 | 0.11 | 0.11 | 92 | 1000.9 |
| 20260830174523 | 64 | 210 | 0.0 | 0.0 | 0.00 | 0.11 | 0.11 | 91 | 1000.8 |
| 20260830173033 | 64 | 210 | 0.0 | 0.0 | 0.00 | 0.11 | 0.11 | 91 | 1000.7 |
| 20260830171521 | 64 | 200 | 0.0 | 5.0 | 0.00 | 0.11 | 0.11 | 91 | 1000.6 |
| 20260830170027 | 64 | 210 | 0.0 | 0.0 | 0.00 | 0.11 | 0.11 | 90 | 1000.5 |
| 20260830164520 | 64 | 214 | 0.0 | 0.0 | 0.00 | 0.11 | 0.11 | 90 | 1000.6 |
| 20260830163031 | 64 | 210 | 0.0 | 5.0 | 0.00 | 0.11 | 0.11 | 90 | 1000.6 |
| 20260830161519 | 64 | 205 | 4.0 | 11.0 | 0.00 | 0.11 | 0.11 | 90 | 1000.7 |
| 20260830160019 | 64 | 200 | 4.0 | 9.0 | 0.00 | 0.11 | 0.11 | 89 | 1000.6 |
| 20260830154521 | 64 | 226 | 3.0 | 10.0 | 0.00 | 0.11 | 0.11 | 89 | 1000.6 |
| 20260830153018 | 65 | 193 | 4.0 | 9.0 | 0.00 | 0.11 | 0.11 | 88 | 1000.5 |
| 20260830151517 | 65 | 210 | 5.0 | 9.0 | 0.00 | 0.11 | 0.11 | 86 | 1000.6 |
| 20260830150017 | 66 | 233 | 5.0 | 11.0 | 0.00 | 0.11 | 0.11 | 84 | 1000.6 |
| 20260830144522 | 67 | 200 | 5.0 | 11.0 | 0.00 | 0.11 | 0.11 | 84 | 1000.6 |
| 20260830143021 | 67 | 221 | 6.0 | 12.0 | 0.00 | 0.11 | 0.11 | 84 | 1000.6 |
| 20260830141515 | 68 | 190 | 6.0 | 10.0 | 0.00 | 0.11 | 0.11 | 83 | 1000.7 |
| 20260830140014 | 68 | 193 | 4.0 | 12.0 | 0.00 | 0.11 | 0.11 | 81 | 1000.7 |
| 20260830134515 | 69 | 195 | 5.0 | 11.0 | 0.00 | 0.11 | 0.11 | 84 | 1000.6 |
| 20260830133009 | 67 | 205 | 4.0 | 10.0 | 0.00 | 0.11 | 0.11 | 85 | 1000.5 |
| 20260830131517 | 65 | 205 | 5.0 | 12.0 | 0.00 | 0.11 | 0.11 | 88 | 1000.6 |
| 20260830130008 | 66 | 210 | 4.0 | 10.0 | 0.00 | 0.11 | 0.11 | 87 | 1000.6 |
| 20260830124507 | 66 | 200 | 5.0 | 12.0 | 0.00 | 0.14 | 0.11 | 86 | 1000.5 |
| 20260830123007 | 67 | 193 | 7.0 | 11.0 | 0.00 | 0.14 | 0.11 | 85 | 1000.3 |
| 20260830121505 | 67 | 210 | 5.0 | 13.0 | 0.00 | 0.14 | 0.11 | 85 | 1000.4 |
| 20260830120007 | 68 | 214 | 5.0 | 11.0 | 0.00 | 0.14 | 0.11 | 85 | 1000.4 |
| 20260830114504 | 68 | 205 | 3.0 | 11.0 | 0.00 | 0.14 | 0.11 | 88 | 1000.4 |
| 20260830113003 | 68 | 224 | 6.0 | 13.0 | 0.00 | 0.14 | 0.11 | 88 | 1000.3 |
| 20260830111501 | 67 | 205 | 4.0 | 12.0 | 0.00 | 0.14 | 0.11 | 88 | 1000.4 |
| 20260830104610 | 65 | 210 | 6.0 | 12.0 | 0.00 | 0.15 | 0.11 | 92 | 1000.4 |
| 20260830103056 | 64 | 210 | 6.0 | 12.0 | 0.01 | 0.15 | 0.11 | 92 | 1000.5 |
| 20260830101552 | 64 | 205 | 4.0 | 11.0 | 0.02 | 0.15 | 0.11 | 92 | 1000.5 |
| 20260830100055 | 64 | 228 | 5.0 | 12.0 | 0.04 | 0.15 | 0.11 | 93 | 1000.5 |
| 20260830094550 | 64 | 191 | 7.0 | 12.0 | 0.04 | 0.17 | 0.11 | 92 | 1000.5 |
| 20260830093059 | 64 | 210 | 6.0 | 11.0 | 0.02 | 0.15 | 0.09 | 93 | 1000.5 |
| 20260830091546 | 63 | 210 | 3.0 | 8.0 | 0.02 | 0.15 | 0.09 | 92 | 1000.4 |
| 20260830090045 | 63 | 210 | 1.0 | 9.0 | 0.00 | 0.13 | 0.07 | 91 | 1000.3 |
| 20260830084544 | 63 | 231 | 4.0 | 8.0 | 0.00 | 0.13 | 0.07 | 91 | 1000.3 |
| 20260830083043 | 63 | 247 | 3.0 | 6.0 | 0.00 | 0.13 | 0.07 | 91 | 1000.3 |
| 20260830081541 | 63 | 220 | 3.0 | 10.0 | 0.00 | 0.13 | 0.07 | 92 | 1000.2 |
| 20260830080042 | 63 | 215 | 2.0 | 9.0 | 0.00 | 0.13 | 0.07 | 93 | 1000.2 |
| 20260830074538 | 62 | 217 | 1.0 | 8.0 | 0.00 | 0.13 | 0.07 | 93 | 1000.2 |
| 20260830073038 | 63 | 210 | 1.0 | 6.0 | 0.00 | 0.13 | 0.07 | 94 | 1000.1 |
| 20260830071607 | 62 | 231 | 2.0 | 5.0 | 0.00 | 0.13 | 0.07 | 94 | 1000.1 |
| 20260830070037 | 62 | 205 | 2.0 | 6.0 | 0.00 | 0.13 | 0.07 | 94 | 1000.0 |
| 20260830064532 | 62 | 229 | 4.0 | 8.0 | 0.00 | 0.13 | 0.07 | 94 | 999.9 |
| 20260830063032 | 61 | 200 | 3.0 | 9.0 | 0.00 | 0.13 | 0.07 | 94 | 999.9 |
| 20260830061530 | 61 | 222 | 1.0 | 9.0 | 0.00 | 0.13 | 0.07 | 95 | 999.7 |
| 20260830060029 | 61 | 205 | 3.0 | 6.0 | 0.00 | 0.13 | 0.07 | 95 | 999.7 |
| 20260830054529 | 61 | 210 | 4.0 | 8.0 | 0.00 | 0.13 | 0.07 | 95 | 999.7 |
| 20260830053028 | 61 | 229 | 3.0 | 8.0 | 0.00 | 0.13 | 0.07 | 96 | 999.6 |
| 20260830051527 | 61 | 224 | 3.0 | 6.0 | 0.00 | 0.13 | 0.07 | 96 | 999.6 |
| 20260830050026 | 60 | 232 | 4.0 | 9.0 | 0.00 | 0.13 | 0.07 | 96 | 999.6 |
| 20260830044546 | 60 | 200 | 3.0 | 8.0 | 0.00 | 0.13 | 0.07 | 96 | 999.6 |
| 20260830043025 | 60 | 205 | 3.0 | 8.0 | 0.00 | 0.13 | 0.07 | 96 | 999.6 |
| 20260830041525 | 60 | 222 | 2.0 | 5.0 | 0.00 | 0.13 | 0.07 | 96 | 999.5 |
| 20260830040027 | 60 | 218 | 1.0 | 8.0 | 0.00 | 0.13 | 0.07 | 95 | 999.5 |
| 20260830034525 | 60 | 210 | 3.0 | 8.0 | 0.00 | 0.13 | 0.07 | 95 | 999.6 |
| 20260830033021 | 60 | 216 | 2.0 | 5.0 | 0.01 | 0.13 | 0.07 | 95 | 999.6 |
| 20260830031520 | 61 | 221 | 2.0 | 6.0 | 0.05 | 0.13 | 0.07 | 95 | 999.5 |